Regional Weather Roundup
Issued by NWS

Home | Current Version | Previous Version | Graphics & Text | Print | Product List | Glossary Off
Versions: 1 2 3 4 5 6 7 8 9 10 11 12 13 14 15 16 17 18 19 20 21 22 23 24 25 26 27 28 29 30 31 32 33 34 35 36 37 38 39 40 41 42 43 44 45 46 47 48 49 50

000
ASUS44 KMEG 190010
RWRTN
TENNESSEE HOURLY STATE WEATHER ROUNDUP
NATIONAL WEATHER SERVICE MEMPHIS TN
600 PM CST WED JAN 18 2017

TNZ002-004-019-021-049-052-054-088>092-190100-
WEST TENNESSEE

CITY           SKY/WX    TMP DP  RH WIND       PRES   REMARKS
MEMPHIS INTL   CLOUDY    54  45  71 E10       30.07F
NWS MEMPHIS      N/A     53 N/A N/A MISG        N/A
JACKSON        MOCLDY    51  45  79 E7        30.10F
DYERSBURG      CLOUDY    48  41  76 SE3       30.09F
UNION CITY     CLEAR     46  46 100 CALM      30.09F
PARIS          CLOUDY    43  39  87 CALM      30.12F
HUNTINGDON     PTCLDY    48  43  81 CALM      30.12F
$$

TNZ008-025-027-028-033-062-065-066-190100-
NORTH MIDDLE TENNESSEE

CITY           SKY/WX    TMP DP  RH WIND       PRES   REMARKS
NASHVILLE      CLOUDY    47  40  76 SE3       30.14F
PORTLAND       CLEAR     45  41  87 CALM      30.13F
CLARKSVILLE    CLOUDY    45  38  76 CALM      30.13F
SMYRNA         MOCLDY    46  42  86 CALM      30.16S
GALLATIN       CLEAR     46  41  81 CALM      30.17S
CROSSVILLE     CLOUDY    47  42  83 CALM      30.13R
$$

TNZ061-075-076-078-094-096-097-190100-
SOUTH MIDDLE TENNESSEE

CITY           SKY/WX    TMP DP  RH WIND       PRES   REMARKS
FAYETTEVILLE   CLEAR     52  46  82 CALM      30.11S
TULLAHOMA      CLEAR     46  43  87 N5        30.13S
WINCHESTER     CLEAR     50  45  81 NE5       30.13S
MCMINNVILLE    CLEAR     46  45  93 CALM      30.14R
COLUMBIA       CLEAR     48  48 100 NE3       30.11S
SHELBYVILLE    CLEAR     46  45  93 N5        30.14R
$$

TNZ017-018-042-046-047-190100-
NORTHEAST TENNESSEE

CITY           SKY/WX    TMP DP  RH WIND       PRES   REMARKS
TRI CITIES     CLOUDY    49  38  65 SW5       30.11R
ELIZABETHTON   CLOUDY    45  41  87 CALM      30.11R HAZE
$$

TNZ012-013-036-069-073-074-190100-
CENTRAL EAST TENNESSEE

CITY           SKY/WX    TMP DP  RH WIND       PRES   REMARKS
KNOXVILLE      CLOUDY    55  43  63 NW5       30.10S
OAK RIDGE      CLOUDY    53  42  66 CALM      30.12S
GATLINBURG     CLEAR     48  41  76 CALM      30.11S
MORRISTOWN     CLEAR     50  37  62 CALM      30.11S
JACKSBORO      CLEAR     48  39  71 NE3       30.15R
$$

TNZ083-085-099-190100-
SOUTHEAST TENNESSEE

CITY           SKY/WX    TMP DP  RH WIND       PRES   REMARKS
CHATTANOOGA    CLOUDY    58  44  60 N3        30.11R
$$

SKY/WX REPORTED AS FAIR MEANS FEW OR NO CLOUDS BELOW
12 THOUSAND FEET.




USA.gov is the U.S. government's official web portal to all federal, state and local government web resources and services.